Simultaneous Nadir Overpasses (SNOs) Predictions

Prediction of SNOs between METOP-A and NPP Satellite Orbit:

Table of predicted SNOs for the next 14.0 days since TLE Epoch: 2/7/2020
Index Date (METOP-A) Time (METOP-A) Lat,Lon (METOP-A) SZA (METOP-A ) Date (NPP) Time (NPP) Lat,Lon (NPP) SZA (NPP ) Distance(km) Time Diff (sec)
1 02/11/2020 09:26:05 75.50, 26.26 90.08 02/11/2020 09:24:57 75.50, 23.77 90.28 69.33 68
2 02/11/2020 10:16:49 -75.39,-166.74 90.02 02/11/2020 10:15:39 -75.39,-168.60 89.86 51.99 70
3 02/11/2020 11:07:33 75.19, 0.02 89.82 02/11/2020 11:06:20 75.17, -0.61 89.87 18.17 73
4 02/11/2020 11:58:17 -75.08, 167.03 90.28 02/11/2020 11:57:02 -75.07, 167.00 90.27 1.76 75
5 02/11/2020 12:48:57 75.07, -25.65 89.71 02/11/2020 12:47:48 75.08, -25.72 89.74 1.98 69
6 02/11/2020 13:39:39 -75.06, 141.63 90.32 02/11/2020 13:38:32 -75.07, 141.62 90.29 1.17 67
7 02/11/2020 14:30:19 75.05, -51.05 89.67 02/11/2020 14:29:18 75.08, -51.11 89.72 3.29 61
8 02/11/2020 15:21:01 -75.04, 116.24 90.36 02/11/2020 15:20:02 -75.07, 116.23 90.31 3.64 59
9 02/11/2020 16:11:41 75.03, -76.45 89.63 02/11/2020 16:10:47 75.04, -76.35 89.64 2.71 54
10 02/11/2020 17:02:22 -75.07, 90.98 90.36 02/11/2020 17:01:32 -75.08, 90.85 90.33 3.77 50
11 02/11/2020 17:53:02 75.06,-101.71 89.63 02/11/2020 17:52:17 75.04,-101.74 89.63 2.73 45
12 02/11/2020 18:43:44 -75.05, 65.58 90.40 02/11/2020 18:43:01 -75.03, 65.60 90.40 1.93 43
13 02/11/2020 19:34:24 75.04,-127.10 89.59 02/11/2020 19:33:47 75.04,-127.12 89.61 0.47 37
14 02/11/2020 20:25:06 -75.03, 40.18 90.43 02/11/2020 20:24:31 -75.03, 40.22 90.42 1.23 35
15 02/11/2020 21:15:46 75.02,-152.50 89.55 02/11/2020 21:15:17 75.05,-152.51 89.59 2.62 29
16 02/11/2020 22:06:27 -75.06, 14.92 90.44 02/11/2020 22:06:01 -75.04, 14.83 90.44 3.24 26
17 02/11/2020 22:57:07 75.05,-177.76 89.55 02/11/2020 22:56:47 75.05,-177.89 89.57 3.64 20
18 02/11/2020 23:47:49 -75.04, -10.48 90.47 02/11/2020 23:47:31 -75.04, -10.55 90.46 2.27 18
19 02/12/2020 00:38:29 75.03, 156.84 89.52 02/12/2020 00:38:16 75.00, 156.86 89.49 2.94 13
20 02/12/2020 01:29:11 -75.02, -35.87 90.51 02/12/2020 01:29:00 -75.00, -35.80 90.53 2.97 11
21 02/12/2020 02:19:51 75.01, 131.44 89.48 02/12/2020 02:19:46 75.01, 131.48 89.47 1.04 5
22 02/12/2020 03:10:33 -75.00, -61.27 90.55 02/12/2020 03:10:30 -75.00, -61.19 90.55 2.47 3
23 02/12/2020 04:01:13 74.99, 106.05 89.44 02/12/2020 04:01:16 75.01, 106.09 89.45 2.73 3
24 02/12/2020 04:51:54 -75.02, -86.53 90.55 02/12/2020 04:52:00 -75.00, -86.57 90.57 2.54 6
25 02/12/2020 05:42:34 75.02, 80.78 89.44 02/12/2020 05:42:46 75.02, 80.71 89.44 2.19 12
26 02/12/2020 06:33:16 -75.00,-111.93 90.59 02/12/2020 06:33:30 -75.01,-111.95 90.59 0.79 14
27 02/12/2020 07:23:56 75.00, 55.39 89.40 02/12/2020 07:24:16 75.02, 55.32 89.42 2.86 20
28 02/12/2020 08:14:38 -74.99,-137.32 90.63 02/12/2020 08:15:00 -75.01,-137.34 90.61 2.92 22
29 02/12/2020 09:05:18 74.98, 29.99 89.36 02/12/2020 09:05:45 74.97, 30.08 89.34 2.53 27
30 02/12/2020 09:56:00 -74.97,-162.72 90.67 02/12/2020 09:56:29 -74.97,-162.59 90.68 3.88 29
31 02/12/2020 10:46:39 75.01, 4.73 89.36 02/12/2020 10:47:15 74.98, 4.69 89.32 3.43 36
32 02/12/2020 11:37:21 -74.99, 172.02 90.67 02/12/2020 11:37:59 -74.97, 172.03 90.70 2.61 38
33 02/12/2020 12:28:01 74.99, -20.67 89.32 02/12/2020 12:28:45 74.98, -20.69 89.30 0.95 44
34 02/12/2020 13:18:43 -74.97, 146.62 90.71 02/12/2020 13:19:29 -74.97, 146.64 90.72 0.70 46
35 02/12/2020 14:09:23 74.97, -46.06 89.28 02/12/2020 14:10:15 74.98, -46.08 89.28 2.00 52
36 02/12/2020 15:00:05 -74.95, 121.22 90.75 02/12/2020 15:00:59 -74.98, 121.26 90.74 2.81 54
37 02/12/2020 15:50:44 75.00, -71.33 89.28 02/12/2020 15:51:45 74.99, -71.46 89.26 3.95 61
38 02/12/2020 16:41:26 -74.98, 95.96 90.75 02/12/2020 16:42:29 -74.98, 95.88 90.76 2.47 63
39 02/12/2020 17:32:06 74.98, -96.72 89.24 02/12/2020 17:33:14 74.94, -96.71 89.19 3.54 68
40 02/12/2020 18:22:48 -74.96, 70.57 90.79 02/12/2020 18:23:59 -74.98, 70.49 90.78 3.23 71
41 02/12/2020 19:13:30 74.86,-122.39 89.13 02/12/2020 19:14:43 74.90,-121.96 89.11 13.21 73
42 02/12/2020 20:04:12 -74.80, 44.77 90.93 02/12/2020 20:05:25 -74.84, 45.51 90.97 22.11 73
43 02/12/2020 20:54:57 74.54,-148.56 88.87 02/12/2020 20:56:05 74.56,-146.42 88.70 63.46 68
44 02/12/2020 21:45:41 -74.44, 18.49 91.23 02/12/2020 21:46:48 -74.51, 21.04 91.38 76.59 67




NCC Satellite Simultaneous Nadir Overpasses (SNOs) Prediction Service
